SCP
0 0 0 0 0 0 0 0 0 0 0 0 0 0 0 0 0 0 0 0 0 0 0 0 0 0 0 0 0 0 0 0 0 0 0 0 0 0
0 0 0 0 0 0 0 0 0 0 0 0 0 0 0 0 0 0 0 0 0 0 0 0 0 0 0 0 0 0 0 0 0 0 0 0 0 0
0 0 0 0 0 0 0 0 0 0 0 0 0 0 0 0 0 0 0 0 0 0 0 0 0 0 0 0 0 0 0 0 0 0 0 0 0 0
0 0 0 0 0 0 0 0 0 0 0 0 0 0 0 0 0 0 0 0 0 0 0 0 0 0 0 0 0 0 0 0 0 0 0 0 0 0
0 0 0 0 0 0 0 0 0 0 0 0 0 0 0 0 0 0 0 0 0 0 0 0 0 0 0 0 0 0 0 0 0 0 0 0 0 0
0 0 0 0 0 0 0 0 0 0 0 0 0 0 0 0 0 0 0 0 0 0 0 0 0 0 0 0 0 0 0 0 0 0 0 0 0 0
0 0 0 0 0 0 0 0 0 0 0 0 0 0 0 0 0 0 0 0 0 0 0 0 0 0 0 0 0 0 0 0 0 0 0 0 0 0
0 0 0 0 0 0 0 0 0 0 0 0 0 0 0 0 0 0 0 0 0 0 0 0 0 0 0 0 0 0 0 0 0 0 0 0 0 0
0 0 0 0 0 0 0 0 0 0 0 0 0 0 0 0 0 0 0 0 0 0 0 0 0 0 0 0 0 0 0 0 0 0 0 0 0 0
0 0 0 0 0 0 0 0 0 0 0 0 0 0 0 0 0 0 0 0 0 0 0 0 0 0 0 0 0 0 0 0 0 0 0 0 0 0
0 0 0 0 0 0 0 0 0 0 0 0 0 0 -0 0 0 0 0 0 -0 -0 0 0 0 0 0 0 0 0 0 0 0 0 0 0 0 0
0 0 0 0 0 0 0 0 0 0 0 0 0 0 0 0 0 0 0 0 -0 -0 0 0 0 0 0 0 0 0 0 0 0 0 0 0 0 0
0 0 0 0 0 0 0 0 0 0 0 0 0 0 0 0 0 0 0 0 -0 -0 0 0 0 0 0 0 0 0 0 0 0 0 0 0 0 0
0 0 0 0 0 0 0 0 0 0 0 0 0 0 0 0 0 0 0 0 0 0 0 0 0 0 0 0 0 0 0 0 0 0 0 0 0 0
0 0 0 0 0 0 0 0 0 0 0 0 0 0 0 0 0 0 0 0 0 0 0 0 0 0 0 0 0 0 0 0 0 0 0 0 0 0
0 0 0 0 0 0 0 0 0 0 0 0 0 0 0 0 0 0 0 0 0 0 0 0 0 0 0 0 0 0 0 0 0 0 0 0 0 0
0 0 0 0 0 0 0 0 0 0 0 0 0 0 0 0 0 0 0 0 0 0 0 0 0 0 0 0 0 0 0 0 0 0 0 0 0 0
0 0 0 0 0 0 0 0 0 0 0 0 0 0 0 0 0 0 0 0 0 0 0 0 0 0 0 0 0 0 0 0 0 0 0 0 0 0
0 0 0 0 0 0 0 0 0 0 0 0 0 0 0 0 0 0 0 0 0 0 0 0 0 0 0 0 0 0 0 0 0 0 0 0 0 0
0 0 0 0 0 0 0 0 0 0 0 0 0 0 0 0 0 0 0 0 0 0 0 0 0 0 0 0 0 0 0 0 0 0 0 0 0 0
0 0 0 0 0 0 0 0 0 0 0 0 0 0 0 0 0 0 0 0 0 0 0 0 0 0 0 0 0 0 0 0 0 0 0 0 0 0
0 0 0 0 0 0 0 0 0 0 0 0 0 0 0 0 0 0 0 0 0 0 0 0 0 0 0 0 0 0 0 0 0 0 0 0 0 0
0 0 0 0 0 0 0 0 0 0 0 0 0 0 0 0 0 0 0 0 0 0 0 0 0 0 0 0 0 0 0 0 0 0 0 0 0 0
Wind_Speed
4 3 3 2 2 2 2 3 4 2 3 3 2 2 2 2 4 4 4 7 9 9 9 9 9 9 9 9 8 8 8 9 10 10 10 10 11 11
3 3 3 2 1 1 1 1 3 3 3 3 2 2 2 2 3 2 3 6 7 8 9 9 10 9 9 9 9 9 10 10 10 11 11 11 11 12
3 3 3 2 1 1 1 1 1 2 2 3 1 1 1 1 2 2 2 2 3 6 7 9 10 10 10 10 10 10 11 11 11 12 12 12 12 12
4 3 4 2 2 1 1 1 1 2 2 2 2 1 2 2 1 2 2 2 3 6 8 8 9 9 9 10 10 10 11 11 12 12 12 12 12 12
4 4 4 3 2 2 2 2 2 2 2 2 2 1 2 1 1 2 2 2 3 4 6 7 8 8 9 10 10 10 10 11 12 12 11 11 12 12
4 4 4 5 4 4 3 3 2 1 1 1 1 1 2 1 0 1 2 2 3 3 3 4 6 7 8 9 9 9 9 10 11 11 11 11 11 11
3 4 4 5 6 4 3 3 3 2 1 1 1 1 1 1 1 1 2 2 3 2 2 3 2 3 4 6 8 9 9 9 9 10 10 10 10 11
4 3 4 4 5 4 4 5 5 4 3 3 2 2 3 3 2 1 1 1 3 2 1 3 2 3 3 3 6 7 8 8 9 9 10 10 10 10
4 4 3 3 4 3 3 2 3 5 7 5 4 5 4 4 3 2 2 3 4 3 1 3 2 3 3 4 6 7 8 9 9 10 10 10 10 10
4 5 4 4 4 4 3 2 3 4 5 5 5 6 5 5 4 4 3 3 3 3 2 2 2 3 3 3 6 8 8 9 9 9 10 9 9 10
4 4 5 5 6 6 4 3 3 4 5 6 6 6 7 7 5 2 1 0 2 3 2 2 2 2 2 3 5 7 7 8 8 8 8 8 9 9
2 3 5 6 6 6 5 4 4 5 3 3 3 4 4 5 6 5 4 3 2 3 3 2 2 1 3 3 3 3 3 5 6 7 7 8 8 5
3 3 3 6 6 7 6 5 7 5 2 2 3 3 3 3 3 4 5 5 4 5 4 3 2 2 2 3 3 2 2 2 2 3 5 7 7 6
4 3 3 5 6 6 5 6 6 3 2 2 2 3 3 4 4 4 5 5 6 6 5 4 3 3 2 2 3 3 2 2 2 3 3 4 5 7
3 5 4 5 5 4 6 6 4 2 2 2 4 4 4 4 3 2 3 3 4 6 5 4 4 3 3 3 3 2 2 2 2 3 3 3 3 3
2 3 3 4 3 4 4 3 3 3 3 4 4 4 3 2 3 3 2 2 2 4 4 4 5 5 3 4 3 3 2 2 2 2 2 2 3 3
2 1 0 1 1 2 2 3 2 2 3 3 3 3 3 3 3 2 2 2 2 3 3 3 2 2 4 3 3 4 3 3 3 2 2 2 3 4
3 2 2 3 3 3 3 2 2 3 3 3 3 3 3 3 3 2 2 2 3 3 3 3 1 1 2 2 4 4 3 3 3 3 2 3 4 4
3 3 3 3 3 3 3 3 3 3 2 2 3 3 3 2 2 2 2 2 3 3 3 2 2 2 2 4 4 4 4 3 2 2 3 3 4 4
3 3 4 3 3 3 3 3 3 2 1 2 2 2 2 2 2 2 3 3 2 2 2 2 2 3 4 4 3 3 4 4 3 3 3 2 3 3
3 3 3 3 3 2 3 2 2 2 2 1 2 2 2 2 2 3 3 3 2 2 3 3 4 4 2 1 1 3 3 3 4 3 3 2 2 1
3 3 3 3 2 2 2 2 2 1 2 2 2 2 2 2 2 3 2 2 2 3 3 3 2 1 1 2 3 3 3 3 3 3 3 3 3 3
3 3 3 3 2 2 2 2 2 2 2 2 2 2 2 1 2 2 2 2 2 2 2 2 1 1 2 2 2 2 3 3 2 1 2 4 4 4
Wind_Direction
220 221 223 232 221 212 193 176 171 206 258 259 258 252 236 231 232 224 229 229 230 229 226 224 225 227 231 231 234 234 232 232 230 229 232 234 236 238
221 224 229 231 230 212 186 183 174 177 226 250 243 253 254 252 247 233 235 235 241 239 229 227 228 229 231 233 234 231 231 233 233 232 234 236 240 241
226 217 229 214 201 207 171 166 166 163 216 271 260 259 253 262 277 265 252 245 255 249 236 233 230 232 234 235 237 237 235 235 236 237 239 239 240 241
224 216 226 213 203 212 187 195 207 195 190 241 268 271 261 250 236 252 266 258 253 251 240 240 238 238 239 239 240 240 239 239 240 240 240 238 238 241
213 209 215 195 206 215 204 205 215 215 185 192 247 262 278 282 299 299 294 292 270 257 240 241 242 246 245 244 244 243 242 243 241 237 236 236 237 239
217 211 207 196 200 204 206 211 198 185 176 184 242 277 278 285 183 281 305 297 280 275 260 252 246 250 253 251 245 242 243 244 242 238 234 234 234 234
225 216 213 211 206 202 194 196 184 181 179 188 245 274 279 292 251 238 263 283 281 268 280 271 254 251 256 258 251 245 245 245 243 241 239 235 232 231
220 225 222 214 210 211 207 197 186 186 196 200 220 229 245 237 232 225 231 304 293 279 255 276 237 247 251 245 253 250 246 243 243 241 240 237 233 231
215 213 222 215 203 204 223 235 231 224 208 194 208 224 224 220 205 230 223 222 239 249 201 274 272 261 258 259 261 252 249 251 248 245 242 240 237 234
215 207 207 213 212 200 205 231 249 248 229 212 210 225 226 216 203 210 219 242 265 261 184 238 265 261 269 260 260 252 250 251 253 249 247 242 238 234
227 217 205 210 220 205 193 220 257 270 258 234 231 237 240 239 220 189 212 219 279 275 213 203 249 265 274 265 263 259 257 257 256 258 255 248 241 233
247 236 218 214 219 207 193 202 234 254 258 275 273 274 264 257 233 203 199 201 231 261 239 200 235 241 295 279 267 262 260 262 257 258 257 252 245 230
230 243 238 225 222 217 205 206 225 233 242 246 262 273 276 268 251 219 203 195 205 235 233 190 213 207 220 276 289 264 245 249 250 254 256 255 247 222
219 229 235 232 232 231 224 230 230 226 228 249 261 267 266 264 255 239 223 216 219 230 232 193 204 205 214 258 278 285 267 245 234 246 251 256 253 240
225 226 229 234 238 242 244 244 229 204 206 234 250 255 250 252 256 256 254 241 250 253 246 217 214 218 204 224 249 261 283 278 241 235 238 230 230 221
238 240 247 242 237 243 254 249 223 206 206 227 243 254 259 259 250 235 239 240 261 279 271 242 224 209 219 227 226 252 251 261 269 251 243 249 240 226
177 176 220 227 237 251 253 247 235 221 228 236 240 254 259 257 256 236 221 215 225 255 277 279 256 227 218 214 234 248 253 256 251 251 248 261 259 243
155 196 222 227 228 232 240 253 243 232 231 228 231 238 245 244 252 250 226 218 237 248 250 248 248 324 330 282 226 233 245 251 256 246 231 241 266 262
174 210 221 228 232 231 230 233 242 242 227 219 227 235 240 242 239 249 250 244 249 253 251 229 201 190 240 278 282 231 225 249 250 255 243 229 248 263
203 213 221 226 226 223 227 229 236 243 237 229 230 233 229 231 239 247 244 241 248 257 263 242 213 206 214 235 255 276 243 228 232 246 252 250 258 269
218 224 224 220 220 217 220 217 213 214 217 212 223 233 234 232 245 248 245 250 241 238 250 254 246 232 214 155 267 281 280 246 231 234 227 228 261 276
225 227 225 221 218 214 209 204 201 213 212 211 227 238 241 236 245 251 246 243 239 236 245 261 268 230 177 201 246 262 278 296 287 277 259 219 203 215
223 227 225 222 218 213 209 203 201 210 208 210 223 230 225 232 246 249 254 250 249 247 245 265 276 232 217 217 244 260 272 286 301 327 309 295 268 259